Newark, NJ

3:53 AM EDT on April 28, 2017 (GMT -0400)
Newark International

Weather History for KEWR - August, 2014

Change the Weather History Date:

Wednesday, August 20, 2014

  Actual Average Record
Temperature  
Mean Temperature 76 °F 76 °F  
Max Temperature 83 °F 84 °F 97 °F (1955)
Min Temperature 69 °F 67 °F 52 °F (1949)
Degree Days  
Heating Degree Days 0 0  
Month to date heating degree days 0 0  
Since 1 June heating degree days 0 17  
Since 1 July heating degree days 0 0  
Cooling Degree Days 11 11  
Month to date cooling degree days 199 231  
Year to date cooling degree days 888 929  
Since 1 June cooling degree days 826 853  
Growing Degree Days 26 (Base 50)    
Moisture  
Dew Point 61 °F    
Average Humidity 63    
Maximum Humidity 84    
Minimum Humidity 42    
Precipitation  
Precipitation T in 0.11 in 1.46 in (1950)
Month to date precipitation 1.17 2.59  
Year to date precipitation 34.03 30.26  
Snow  
Snow 0.00 in 0.00 in 0.00 in (2002)
Month to date snowfall 0.0 0.0  
Since 1 July snowfall 0.0 0.0  
Snow Depth 0.00 in    
Sea Level Pressure  
Sea Level Pressure 29.98 in    
Wind  
Wind Speed 5 mph (SSE)    
Max Wind Speed 13 mph    
Max Gust Speed 17 mph    
Visibility 10 miles    
Events      
T = Trace of Precipitation, MM = Missing Value Source: NWS Daily Summary

Daily Weather History Graph

Daily Weather History Graph

Search for Another Location

Airport or City:

Trip Planner

Search our weather history database for the weather conditions in past years. The results will help you decide how hot, cold, wet, or windy it might be!

Date:

Astronomy

Aug. 20, 2014 Rise Set
Actual Time 6:11 AM EDT 7:47 PM EDT
Civil Twilight 5:42 AM EDT 8:16 PM EDT
Nautical Twilight 5:07 AM EDT 8:51 PM EDT
Astronomical Twilight 4:30 AM EDT 9:28 PM EDT
Moon 1:49 AM EDT (8/20) 4:30 PM EDT (8/20)
Length of Visible Light 14h 33m
Length of Day
13h 35m
Waning Crescent, 21% of the Moon is Illuminated
Aug 20
Waning Crescent
Aug 25
New
Sep 2
First Quarter
Sep 8
Full
Sep 15
Last Quarter

Hourly Weather History & Observations

Time (EDT) Temp. Heat Index Dew Point Humidity Pressure Visibility Wind Dir Wind Speed Gust Speed Precip Events Conditions
12:51 AM 70.0 °F - 64.9 °F 84% 29.94 in 10.0 mi South 3.5 mph - N/A   Mostly Cloudy
1:51 AM 71.1 °F - 64.9 °F 81% 29.94 in 10.0 mi South 3.5 mph - N/A   Clear
2:51 AM 70.0 °F - 64.9 °F 84% 29.95 in 10.0 mi West 4.6 mph - N/A   Partly Cloudy
3:51 AM 71.1 °F - 64.9 °F 81% 29.94 in 10.0 mi Calm Calm - N/A   Mostly Cloudy
4:51 AM 72.0 °F - 64.9 °F 78% 29.95 in 10.0 mi Calm Calm - N/A   Mostly Cloudy
5:51 AM 72.0 °F - 64.0 °F 76% 29.96 in 10.0 mi Calm Calm - N/A   Mostly Cloudy
6:51 AM 72.0 °F - 64.9 °F 78% 29.97 in 10.0 mi Calm Calm - N/A   Mostly Cloudy
7:51 AM 73.0 °F - 64.9 °F 76% 29.99 in 10.0 mi SE 3.5 mph - N/A   Mostly Cloudy
8:51 AM 75.0 °F - 62.1 °F 64% 29.99 in 10.0 mi SSW 5.8 mph - N/A   Mostly Cloudy
9:51 AM 77.0 °F - 61.0 °F 58% 30.00 in 10.0 mi Calm Calm - N/A   Mostly Cloudy
10:51 AM 79.0 °F - 57.9 °F 48% 30.01 in 10.0 mi Variable 4.6 mph - 0.00 in   Mostly Cloudy
11:51 AM 80.1 °F 80.6 °F 57.9 °F 47% 30.01 in 10.0 mi Variable 4.6 mph - N/A   Mostly Cloudy
12:51 PM 82.0 °F 82.0 °F 57.9 °F 44% 29.99 in 10.0 mi SE 6.9 mph - N/A   Mostly Cloudy
1:51 PM 82.0 °F 82.4 °F 60.1 °F 47% 29.98 in 10.0 mi SSE 8.1 mph - N/A   Scattered Clouds
2:51 PM 82.0 °F 81.7 °F 57.0 °F 42% 29.97 in 10.0 mi South 9.2 mph - N/A   Scattered Clouds
3:51 PM 81.0 °F 80.8 °F 55.9 °F 42% 29.98 in 10.0 mi South 11.5 mph - N/A   Scattered Clouds
4:51 PM 80.6 °F 80.5 °F 55.4 °F 42% 29.98 in 10.0 mi SE 6.9 mph - N/A   Scattered Clouds
5:51 PM 78.8 °F - 57.2 °F 47% 29.99 in 10.0 mi SSE 9.2 mph - N/A   Scattered Clouds
6:51 PM 77.0 °F - 55.0 °F 47% 29.99 in 10.0 mi SSE 6.9 mph - N/A   Mostly Cloudy
7:51 PM 75.0 °F - 59.0 °F 57% 30.01 in 10.0 mi SSE 6.9 mph - N/A   Mostly Cloudy
8:51 PM 73.9 °F - 61.0 °F 64% 30.01 in 10.0 mi SSE 5.8 mph - N/A   Mostly Cloudy
9:51 PM 73.0 °F - 61.0 °F 66% 30.01 in 10.0 mi SSE 6.9 mph - N/A   Mostly Cloudy
10:51 PM 71.6 °F - 62.6 °F 73% 30.01 in 10.0 mi SSE 4.6 mph - N/A   Mostly Cloudy
11:51 PM 72.0 °F - 62.1 °F 71% 30.04 in 10.0 mi SSW 4.6 mph - N/A   Mostly Cloudy